Location: Le Vaud
(46.4779°N, 6.2346°E)
Time: 16:32:54
(UTC+00:00)

Cosmos 1943 - Pass Details

Date: 18 February 2020
Orbit: 832 x 851 km, 71.0° (Epoch: 29 March)

Event Time Altitude Azimuth Distance (km) Brightness Sun altitude
Rises 04:43:30 0° 192° (SSW) 3,363 6.2 -19.8°
Reaches altitude 10° 04:45:57 10° 189° (S) 2,434 5.5 -19.4°
Maximum altitude 04:51:25 59° 111° (ESE) 964 3.8 -18.4°
Drops below altitude 10° 04:56:56 10° 33° (NNE) 2,460 6.1 -17.5°
Sets 04:59:25 0° 30° (NNE) 3,401 6.8 -17.1°
